Home > Weather > Cedar Rapids > Past weeks

Flag for U.S.A. Weather for the Past 2 Weeks in Cedar Rapids, Iowa, U.S.A.

Now
18 °F

Overcast.


Feels Like: 4 °F
Forecast: 2 / 17 °F
Wind: 14 mph from Northwest

Location: Cedar Rapids Municipal Airport

Current Time: Feb 12, 2016 at 7:11:49 AM

Latest Report: Feb 12, 2016 at 6:52 AM


Visibility: 8 mi

Pressure: 30.27 "Hg

Humidity: 88%

Dew point: 15 °F

Location of Cedar RapidsLocation

Historic Weather in Cedar Rapids — Graph

°F

Cedar Rapids Temperature Yesterday

Maximum temperature yesterday: 21 °F (at 2:52 PM)
Minimum temperature yesterday: 3 °F (at 6:52 AM)
Average temperature yesterday: 14 °F

High & Low Weather Summary for the Past Weeks

 TemperatureHumidityPressure
High44 °F (Jan 30, 2:52 PM)100% (Jan 30, 2:52 AM)30.44 "Hg (Jan 30, 2:52 AM)
Low3 °F (Feb 11, 6:52 AM)52% (Feb 11, 1:52 PM)29.43 "Hg (Feb 3, 3:00 AM)
Average26 °F85%29.97 "Hg
* Reported Jan 28 5:52 AM — Feb 12 5:52 AM, Cedar Rapids, Weather by CustomWeather, © 2016

Note: Actual official high and low records may vary slightly from our data, if they occured in-between our weather recording intervals... More about our weather records

Advertising

Cedar Rapids Weather History for the Previous 24 Hours

 ConditionsComfort  
Time TempWeatherWind HumidityBarometerVisibility
5:52 AM
Fri, Feb 12
19 °FOvercast.17 mph88%30.25 "Hg10 mi
4:52 AM20 °FOvercast.12 mph89%30.23 "Hg10 mi
3:52 AM19 °FMostly cloudy.10 mph92%30.22 "Hg10 mi
2:52 AM19 °FOvercast.7 mph88%30.23 "Hg10 mi
1:52 AM18 °FOvercast.5 mph92%30.24 "Hg10 mi
12:52 AM17 °FMostly cloudy.5 mph88%30.25 "Hg10 mi
11:52 PM
Thu, Feb 11
17 °FClear.5 mph83%30.27 "Hg10 mi
10:52 PM19 °FOvercast.5 mph77%30.28 "Hg10 mi
9:52 PM18 °FPassing clouds.3 mph74%30.29 "Hg10 mi
8:52 PM20 °FOvercast.3 mph74%30.29 "Hg10 mi
7:52 PM21 °FOvercast.6 mph62%30.31 "Hg10 mi
6:52 PM21 °FOvercast.5 mph60%30.32 "Hg10 mi
5:52 PM21 °FMostly cloudy.6 mph57%30.30 "Hg10 mi
4:52 PM21 °FOvercast.6 mph55%30.30 "Hg10 mi
3:52 PM21 °FPartly sunny.6 mph52%30.29 "Hg10 mi
2:52 PM21 °FSunny.5 mph52%30.31 "Hg10 mi
1:52 PM20 °FSunny.5 mph52%30.34 "Hg10 mi
12:52 PM19 °FSunny.No wind59%30.37 "Hg10 mi
11:52 AM17 °FSunny.3 mph56%30.39 "Hg10 mi
10:52 AM16 °FSunny.5 mph59%30.39 "Hg10 mi
9:52 AM13 °FSunny.7 mph64%30.39 "Hg10 mi
8:52 AM11 °FSunny.3 mph73%30.38 "Hg9 mi
7:52 AM5 °FSunny.3 mph87%30.38 "Hg10 mi
Weather by CustomWeather, © 2016

See weather overviewHow to use our weather pages